Weather History for Toledo, OH

Change the Weather History Date:

Sunday, December 30, 2012

  Actual Average Record
Temperature  
Mean Temperature 23 °F 26 °F  
Max Temperature 28 °F 33 °F 60 °F (1936)
Min Temperature 17 °F 20 °F -12 °F (1983)
Degree Days  
Heating Degree Days 42 39  
Month to date heating degree days 876 1053  
Since 1 July heating degree days 2213 2286  
Cooling Degree Days 0 0  
Month to date cooling degree days 0 0  
Year to date cooling degree days 998 793  
Moisture  
Dew Point 18 °F    
Average Humidity 80    
Maximum Humidity 92    
Minimum Humidity 68    
Precipitation  
Precipitation T in 0.08 in 2.51 in (1992)
Month to date precipitation 2.11 2.60  
Year to date precipitation 30.30 34.16  
Snow  
Snow T in 0.30 in - ()
Month to date snowfall 6.5 7.1  
Since 1 July snowfall 6.5 9.2  
Snow Depth 3.00 in    
Sea Level Pressure  
Sea Level Pressure 30.26 in    
Wind  
Wind Speed 11 mph (WSW)    
Max Wind Speed 21 mph    
Max Gust Speed 25 mph    
Visibility 6 miles    
Events Snow    
T = Trace of Precipitation, MM = Missing Value Source: NWS Daily Summary

Daily Weather History Graph

Daily Weather History Graph

Search for Another Location

Airport:

Trip Planner

Search our weather history database for the weather conditions in past years. The results will help you decide how hot, cold, wet, or windy it might be!

Date:

Astronomy

Dec. 30, 2012 Rise Set
Actual Time 8:01 AM EST 5:14 PM EST
Civil Twilight 7:30 AM EST 5:45 PM EST
Nautical Twilight 6:55 AM EST 6:20 PM EST
Astronomical Twilight 6:21 AM EST 6:54 PM EST
Moon 7:46 PM EST 9:08 AM EST
Length of Visible Light 10h 15m
Length of Day
9h 12m
Waning Gibbous, 95% of the Moon is Illuminated
Dec 30
Waning Gibbous
Jan 4
Last Quarter
Jan 11
New
Jan 18
First Quarter
Jan 26
Full

Hourly Weather History & Observations

Time (EST) Temp. Windchill Dew Point Humidity Pressure Visibility Wind Dir Wind Speed Gust Speed Precip Events Conditions
12:52 AM 21.0 °F 9.9 °F 19.0 °F 92% 30.12 in 5.0 mi West 10.4 mph - N/A   Partly Cloudy
1:52 AM 21.0 °F 10.6 °F 19.0 °F 92% 30.14 in 4.0 mi West 9.2 mph - N/A   Mostly Cloudy
2:12 AM 21.2 °F 11.7 °F 17.6 °F 86% 30.12 in 4.0 mi WSW 8.1 mph - N/A   Mostly Cloudy
2:20 AM 24.8 °F 15.3 °F 21.2 °F 86% 30.13 in 4.0 mi West 9.2 mph - N/A   Mostly Cloudy
2:52 AM 25.0 °F 14.2 °F 23.0 °F 92% 30.17 in 3.0 mi West 11.5 mph - 0.00 in Snow Light Snow
3:03 AM 26.6 °F 16.8 °F 23.0 °F 86% 30.15 in 2.5 mi West 10.4 mph - 0.00 in Snow Light Snow
3:10 AM 26.6 °F 17.5 °F 24.8 °F 93% 30.15 in 3.0 mi West 9.2 mph - 0.00 in Snow Light Snow
3:18 AM 26.6 °F 18.2 °F 24.8 °F 93% 30.15 in 2.5 mi West 8.1 mph - 0.00 in Snow Light Snow
3:31 AM 26.6 °F 19.1 °F 24.8 °F 93% 30.15 in 3.0 mi WSW 6.9 mph - 0.00 in Snow Light Snow
3:52 AM 27.0 °F 16.7 °F 25.0 °F 92% 30.18 in 3.0 mi WSW 11.5 mph - 0.00 in Snow Light Snow
4:52 AM 27.0 °F 15.6 °F 24.1 °F 89% 30.20 in 6.0 mi West 13.8 mph - 0.00 in   Overcast
5:27 AM 26.6 °F 13.8 °F 23.0 °F 86% 30.19 in 7.0 mi West 17.3 mph - N/A   Overcast
5:43 AM 26.6 °F 13.8 °F 23.0 °F 86% 30.20 in 7.0 mi WSW 17.3 mph - N/A   Overcast
5:52 AM 26.1 °F 14.0 °F 23.0 °F 88% 30.23 in 7.0 mi WSW 15.0 mph - N/A   Overcast
6:06 AM 26.6 °F 14.3 °F 23.0 °F 86% 30.22 in 7.0 mi WSW 16.1 mph - N/A   Overcast
6:52 AM 25.0 °F 12.6 °F 21.9 °F 88% 30.27 in 7.0 mi West 15.0 mph - N/A   Overcast
7:52 AM 24.8 °F 11.9 °F 19.4 °F 80% 30.29 in 8.0 mi West 16.1 mph - N/A   Overcast
8:52 AM 23.0 °F 10.6 °F 19.0 °F 85% 30.33 in 7.0 mi WSW 13.8 mph - N/A   Overcast
9:29 AM 23.0 °F 11.1 °F 19.4 °F 86% 30.31 in 9.0 mi WSW 12.7 mph - N/A   Overcast
9:52 AM 23.0 °F 11.7 °F 18.0 °F 81% 30.35 in 9.0 mi WSW 11.5 mph - N/A   Overcast
10:52 AM 23.0 °F 10.1 °F 18.0 °F 81% 30.37 in 9.0 mi WSW 15.0 mph - N/A   Overcast
11:52 AM 23.0 °F 10.6 °F 17.1 °F 78% 30.37 in 9.0 mi WSW 13.8 mph - N/A   Overcast
12:17 PM 21.2 °F 7.8 °F 15.8 °F 80% 30.34 in 7.0 mi SW 15.0 mph - N/A   Overcast
12:52 PM 21.9 °F 9.8 °F 16.0 °F 78% 30.37 in 8.0 mi SW 12.7 mph 19.6 mph N/A   Overcast
1:52 PM 21.0 °F 7.6 °F 16.0 °F 81% 30.34 in 8.0 mi WSW 15.0 mph - N/A   Mostly Cloudy
2:28 PM 21.2 °F 7.8 °F 15.8 °F 80% 30.31 in 9.0 mi WSW 15.0 mph - N/A   Mostly Cloudy
2:52 PM 21.0 °F 8.6 °F 15.1 °F 78% 30.35 in 8.0 mi SW 12.7 mph - N/A   Mostly Cloudy
3:35 PM 21.2 °F 11.7 °F 15.8 °F 80% 30.31 in 8.0 mi SW 8.1 mph - N/A   Scattered Clouds
3:52 PM 21.9 °F 11.0 °F 14.0 °F 72% 30.34 in 8.0 mi SSW 10.4 mph - N/A   Clear
4:52 PM 21.0 °F 10.6 °F 12.9 °F 71% 30.33 in 7.0 mi SW 9.2 mph - N/A   Clear
5:52 PM 19.0 °F 13.9 °F 12.9 °F 77% 30.32 in 7.0 mi South 3.5 mph - N/A   Clear
6:52 PM 18.0 °F 9.8 °F 12.9 °F 81% 30.32 in 7.0 mi SSW 5.8 mph - N/A   Clear
7:52 PM 19.9 °F 9.3 °F 14.0 °F 78% 30.32 in 7.0 mi SW 9.2 mph 17.3 mph N/A   Clear
8:52 PM 19.0 °F 8.2 °F 12.9 °F 77% 30.32 in 7.0 mi SW 9.2 mph - N/A   Clear
9:52 PM 19.0 °F 9.0 °F 12.9 °F 77% 30.30 in 7.0 mi SSW 8.1 mph - N/A   Clear
10:52 PM 19.0 °F 9.0 °F 14.0 °F 81% 30.28 in 7.0 mi SW 8.1 mph - N/A   Clear
11:52 PM 19.9 °F 11.1 °F 14.0 °F 78% 30.26 in 7.0 mi SW 6.9 mph - N/A   Clear